Regional Weather Roundup
Issued by NWS

Home | Current Version | Previous Version | Graphics & Text | Print | Product List | Glossary On
Versions: 1 2 3 4 5 6 7 8 9 10 11 12 13 14 15 16 17 18 19 20 21 22 23 24 25 26 27 28 29 30 31 32 33 34 35 36 37 38 39 40 41 42 43 44 45 46 47 48 49 50
000
ASUS43 KBIS 200102
RWRND

NORTH DAKOTA REGIONAL WEATHER ROUNDUP
NATIONAL WEATHER SERVICE BISMARCK ND
700 PM CST FRI JAN 19 2018

NOTE: "FAIR" INDICATES FEW OR NO CLOUDS BELOW 12,000 FEET WITH NO
SIGNIFICANT WEATHER AND/OR OBSTRUCTIONS TO VISIBILITY.


NDZ001>003-009>011-017-200200-
NORTHWEST NORTH DAKOTA

CITY           SKY/WX    TMP DP  RH WIND       PRES   REMARKS
WILLISTON      PTCLDY    33  25  72 CALM      29.66R
MINOT          CLOUDY    36  27  69 W13       29.61R
MINOT AFB      PTCLDY    34  27  77 W15       29.59R
$$

NDZ018>021-031>035-040>046-200200-
SOUTHWEST NORTH DAKOTA

CITY           SKY/WX    TMP DP  RH WIND       PRES   REMARKS
BISMARCK       MOCLDY    39  31  72 SW6       29.67R
DICKINSON      CLOUDY    35  31  85 W15       29.67R
GARRISON         N/A     32  27  81 W9        29.63R
HETTINGER ARPT MOCLDY    34  31  88 W9        29.72R
$$

NDZ004>008-012>016-024-026-027-054-200200-
NORTHEAST NORTH DAKOTA

CITY           SKY/WX    TMP DP  RH WIND       PRES   REMARKS
GRAND FORKS    MOCLDY    35  31  85 W6        29.56R
GRND FRKS AFB  MOCLDY    36  30  78 NW8       29.56R
DEVILS LAKE    FAIR      32  28  85 W12       29.59R
$$

NDZ022-023-025-028>030-036>039-047>053-200200-
SOUTHEAST NORTH DAKOTA

CITY           SKY/WX    TMP DP  RH WIND       PRES   REMARKS
FARGO          FAIR      35  31  85 W7        29.60R
JAMESTOWN      PTCLDY    37  30  75 W10       29.62R
$$




USA.gov is the U.S. government's official web portal to all federal, state and local government web resources and services.